Regional Weather Roundup
Issued by NWS

Home | Current Version | Previous Version | Graphics & Text | Print | Product List | Glossary On
Versions: 1 2 3 4 5 6 7 8 9 10 11 12 13 14 15 16 17 18 19 20 21 22 23 24 25 26 27 28 29 30 31 32 33 34 35 36 37 38 39 40 41 42 43 44 45 46 47 48 49 50
000
ASUS43 KIND 050909
RWRIN

WEATHER ROUNDUP FOR INDIANA
NATIONAL WEATHER SERVICE INDIANAPOLIS IN
500 AM EDT THU MAY 05 2016

NOTE: "FAIR" INDICATES FEW OR NO CLOUDS BELOW 12,000 FEET WITH NO
SIGNIFICANT WEATHER AND/OR OBSTRUCTIONS TO VISIBILITY.

* - STATION DOES NOT REPORT WEATHER SUCH AS PRECIPITATION OR FOG.

+ - STATION NOT QUALITY CONTROLLED BY THE NATIONAL WEATHER SERVICE.
    USE DATA WITH CAUTION...ESPECIALLY DEWPOINT AND RELATIVE
    HUMIDITY OBSERVATIONS.

INZ001>003-010>013-019-020-051000-
NORTHWEST INDIANA

CITY           SKY/WX    TMP DP  RH WIND       PRES   REMARKS
GARY /AIRPORT/ CLOUDY    43  43 100 N21G29    29.87S
KNOX *+        CLOUDY    41  37  87 N16       29.81R
LA PORTE +     CLOUDY    44  44 100 N13G21    29.83R
MICHIGAN CITY+ CLOUDY    41  41 100 N12G18    29.85R
MONTICELLO +   CLOUDY    41  38  87 N13       29.79R
RENSSELAER +   CLOUDY    41  39  93 N14G22    29.83R
VALPARAISO     CLOUDY    41  38  89 N15G22    29.83R

$$

LMZ046-743>745-051000-
SOUTHERN LAKE MICHIGAN

STATION/POSITION TIME  TEMP    WIND        PRES    WAVE
                       AIR SEA DIR/SP/G            HT
                 (UTC) (F)     (DEG/KT/KT) (MB)    (FT)
BURNS HARBOR     0813   43      20/ 26     1010.8R
MICHIGAN CITY    0800   42     360/ 28/ 30   N/A

$$

INZ004-005-014>016-021>024-051000-
NORTH CENTRAL INDIANA

CITY           SKY/WX    TMP DP  RH WIND       PRES   REMARKS
GOSHEN         LGT RAIN  44  42  93 N6        29.79R
LOGANSPORT +   CLOUDY    41  41 100 N10       29.79R
PERU/GRISSOM   MOCLDY    42  42  99 NE9       29.76R
ROCHESTER +    CLOUDY    45  43  93 NE3       29.80R
SOUTH BEND     CLOUDY    43  42  97 N14       29.82R
WARSAW +       LGT RAIN  41  41 100 N5        29.79R

$$

INZ006>009-017-018-025>027-051000-
NORTHEAST INDIANA

CITY           SKY/WX    TMP DP  RH WIND       PRES   REMARKS
ANGOLA *+      CLOUDY    43  43 100 N3        29.76S
AUBURN +       CLOUDY    41  37  87 N6        29.77S
FORT WAYNE     MOCLDY    39  36  89 N6        29.77R
HUNTINGTON +   CLOUDY   N/A N/A N/A N6        29.77R

$$

INZ028-029-035-036-043>045-051>053-051000-
WEST CENTRAL INDIANA

CITY           SKY/WX    TMP DP  RH WIND       PRES   REMARKS
CRAWFORDSVL +  CLOUDY    39  39 100 N13G22    29.78R
GREENCASTLE +  CLOUDY    41  41 100 N9        29.78S FOG
LAFAYETTE      CLOUDY    41  38  89 N17G29    29.80R
TERRE HAUTE    CLOUDY    45  36  70 N17G23    29.80R

$$

INZ030>032-037>040-046>048-054>057-064-065-051000-
CENTRAL INDIANA

CITY           SKY/WX    TMP DP  RH WIND       PRES   REMARKS
CP ATTERBURY + CLOUDY    41  37  87 NW7       29.76S
FRANKFORT +      N/A     41  41  98 N14G21    29.78R FOG
INDIANAPOLIS   LGT RAIN  42  39  89 NW13      29.74S
-EAGLE CREEK   CLOUDY    42  40  92 N13       29.75R FOG
KOKOMO *+      CLOUDY    43  37  81 NE10      29.77R
MARION +       CLOUDY    40  38  92 NE7       29.76R
SHELBYVILLE    CLOUDY    43  40  89 NW12      29.74R
ZIONSVILLE +   CLOUDY    40  39  97 N14       29.76R FOG

$$

INZ033-034-041-042-049-050-058-059-051000-
EAST CENTRAL INDIANA

CITY           SKY/WX    TMP DP  RH WIND       PRES   REMARKS
MUNCIE         CLOUDY    42  38  85 NE8       29.74S

$$

INZ060-061-067>069-081>083-085>088-051000-
SOUTHWEST INDIANA

CITY           SKY/WX    TMP DP  RH WIND       PRES   REMARKS
EVANSVILLE     PTCLDY    49  41  74 NW8       29.80S
HUNTINGBURG *+ CLOUDY    48  43  81 NW8       29.78R
WASHINGTON +   CLOUDY    47  41  79 NW12      29.79R

$$

INZ062-063-066-070>080-084-089>092-051000-
SOUTH CENTRAL AND SOUTHEAST INDIANA

CITY           SKY/WX    TMP DP  RH WIND       PRES   REMARKS
BLOOMINGTON    CLOUDY    44  37  76 N13G21    29.76R
MADISON *+     CLOUDY    43  37  81 NW10G16   29.76R
NORTH VERNON + DRIZZLE  N/A N/A N/A CALM      29.75R
SEYMOUR +      CLOUDY    45  41  87 NW8       29.75

$$





USA.gov is the U.S. government's official web portal to all federal, state and local government web resources and services.